����������;��������(kWh)
2019-02-18 00:00;88,35
2019-02-18 00:15;88,65
2019-02-18 00:30;90,75
2019-02-18 00:45;90,95
2019-02-18 01:00;92,1
2019-02-18 01:15;90
2019-02-18 01:30;88,6
2019-02-18 01:45;89,9
2019-02-18 02:00;86,05
2019-02-18 02:15;84,55
2019-02-18 02:30;88,55
2019-02-18 02:45;86,25
2019-02-18 03:00;85,95
2019-02-18 03:15;87,15
2019-02-18 03:30;92,75
2019-02-18 03:45;96,9
2019-02-18 04:00;95,65
2019-02-18 04:15;96,45
2019-02-18 04:30;98,7
2019-02-18 04:45;97,2
2019-02-18 05:00;98,45
2019-02-18 05:15;97,95
2019-02-18 05:30;98,7
2019-02-18 05:45;97
2019-02-18 06:00;96,9
2019-02-18 06:15;96,75
2019-02-18 06:30;93,55
2019-02-18 06:45;93,5
2019-02-18 07:00;96,05
2019-02-18 07:15;100,25
2019-02-18 07:30;107,4
2019-02-18 07:45;117,2
2019-02-18 08:00;128,2
2019-02-18 08:15;142,55
2019-02-18 08:30;179,1
2019-02-18 08:45;208,55
2019-02-18 09:00;237,7
2019-02-18 09:15;294,4
2019-02-18 09:30;275,95
2019-02-18 09:45;267,6
2019-02-18 10:00;295,1
2019-02-18 10:15;318,8
2019-02-18 10:30;327,75
2019-02-18 10:45;318,1
2019-02-18 11:00;336,85
2019-02-18 11:15;348,05
2019-02-18 11:30;357,35
2019-02-18 11:45;355,2
2019-02-18 12:00;344,5
2019-02-18 12:15;352,25
2019-02-18 12:30;353,3
2019-02-18 12:45;352,45
2019-02-18 13:00;351,95
2019-02-18 13:15;354,5
2019-02-18 13:30;353,4
2019-02-18 13:45;349,3
2019-02-18 14:00;351,45
2019-02-18 14:15;337,55
2019-02-18 14:30;337,55
2019-02-18 14:45;334,05
2019-02-18 15:00;327,8
2019-02-18 15:15;308,45
2019-02-18 15:30;299,65
2019-02-18 15:45;294,45
2019-02-18 16:00;292,15
2019-02-18 16:15;268,7
2019-02-18 16:30;262,85
2019-02-18 16:45;269,2
2019-02-18 17:00;252,35
2019-02-18 17:15;234,8
2019-02-18 17:30;232,9
2019-02-18 17:45;227,85
2019-02-18 18:00;227,95
2019-02-18 18:15;230,9
2019-02-18 18:30;224,9
2019-02-18 18:45;223,3
2019-02-18 19:00;216,05
2019-02-18 19:15;203,25
2019-02-18 19:30;200,25
2019-02-18 19:45;200,15
2019-02-18 20:00;193,95
2019-02-18 20:15;168,95
2019-02-18 20:30;160,4
2019-02-18 20:45;162,3
2019-02-18 21:00;157,55
2019-02-18 21:15;148,75
2019-02-18 21:30;148,2
2019-02-18 21:45;145
2019-02-18 22:00;137,6
2019-02-18 22:15;134,4
2019-02-18 22:30;132,9
2019-02-18 22:45;133,6
2019-02-18 23:00;138,8
2019-02-18 23:15;130,9
2019-02-18 23:30;131,75
2019-02-18 23:45;134,1
2019-02-19 00:00;121,5
2019-02-19 00:15;123
2019-02-19 00:30;124,95
2019-02-19 00:45;124,7
2019-02-19 01:00;122,7
2019-02-19 01:15;120
2019-02-19 01:30;118,6
2019-02-19 01:45;118,7
2019-02-19 02:00;118,95
2019-02-19 02:15;118,65
2019-02-19 02:30;118,2
2019-02-19 02:45;118,7
2019-02-19 03:00;120
2019-02-19 03:15;116,9
2019-02-19 03:30;115,3
2019-02-19 03:45;120,7
2019-02-19 04:00;131,8
2019-02-19 04:15;132
2019-02-19 04:30;127,3
2019-02-19 04:45;130,3
2019-02-19 05:00;130,2
2019-02-19 05:15;129
2019-02-19 05:30;126,8
2019-02-19 05:45;127,4
2019-02-19 06:00;126,8
2019-02-19 06:15;125,1
2019-02-19 06:30;123,85
2019-02-19 06:45;119,65
2019-02-19 07:00;124,15
2019-02-19 07:15;126,9
2019-02-19 07:30;185,45
2019-02-19 07:45;160,3
2019-02-19 08:00;163,2
2019-02-19 08:15;164,55
2019-02-19 08:30;175,85
2019-02-19 08:45;205,4
2019-02-19 09:00;221,7
2019-02-19 09:15;233,9
2019-02-19 09:30;239,2
2019-02-19 09:45;239,25
2019-02-19 10:00;247,6
2019-02-19 10:15;262,65
2019-02-19 10:30;269
2019-02-19 10:45;267,4
2019-02-19 11:00;281,3
2019-02-19 11:15;277,5
2019-02-19 11:30;278,75
2019-02-19 11:45;281,05
2019-02-19 12:00;279,8
2019-02-19 12:15;288,55
2019-02-19 12:30;281,15
2019-02-19 12:45;285,8
2019-02-19 13:00;285,75
2019-02-19 13:15;275,8
2019-02-19 13:30;274,8
2019-02-19 13:45;271,35
2019-02-19 14:00;264
2019-02-19 14:15;271,4
2019-02-19 14:30;259,8
2019-02-19 14:45;255,2
2019-02-19 15:00;258,7
2019-02-19 15:15;236
2019-02-19 15:30;247,65
2019-02-19 15:45;232,25
2019-02-19 16:00;229,4
2019-02-19 16:15;224,2
2019-02-19 16:30;218,1
2019-02-19 16:45;215,9
2019-02-19 17:00;198,2
2019-02-19 17:15;202,8
2019-02-19 17:30;197,75
2019-02-19 17:45;193,85
2019-02-19 18:00;190,3
2019-02-19 18:15;177,6
2019-02-19 18:30;180,8
2019-02-19 18:45;183,85
2019-02-19 19:00;182,3
2019-02-19 19:15;172,85
2019-02-19 19:30;175
2019-02-19 19:45;170,7
2019-02-19 20:00;163,8
2019-02-19 20:15;151,9
2019-02-19 20:30;151,15
2019-02-19 20:45;153
2019-02-19 21:00;149,4
2019-02-19 21:15;140,75
2019-02-19 21:30;135,25
2019-02-19 21:45;136,25
2019-02-19 22:00;130,15
2019-02-19 22:15;127,65
2019-02-19 22:30;124,95
2019-02-19 22:45;127,95
2019-02-19 23:00;128,7
2019-02-19 23:15;122,4
2019-02-19 23:30;121,8
2019-02-19 23:45;125,95
2019-02-20 00:00;116,25
2019-02-20 00:15;113,75
2019-02-20 00:30;111,25
2019-02-20 00:45;110,95
2019-02-20 01:00;111,75
2019-02-20 01:15;119,75
2019-02-20 01:30;119,7
2019-02-20 01:45;122,25
2019-02-20 02:00;121,3
2019-02-20 02:15;118,85
2019-02-20 02:30;119
2019-02-20 02:45;118,55
2019-02-20 03:00;118,8
2019-02-20 03:15;118,4
2019-02-20 03:30;116,9
2019-02-20 03:45;119,9
2019-02-20 04:00;115,85
2019-02-20 04:15;112,2
2019-02-20 04:30;114,65
2019-02-20 04:45;114,95
2019-02-20 05:00;116,8
2019-02-20 05:15;112,65
2019-02-20 05:30;115,1
2019-02-20 05:45;115,2
2019-02-20 06:00;117,1
2019-02-20 06:15;112,6
2019-02-20 06:30;107,95
2019-02-20 06:45;111,4
2019-02-20 07:00;115,35
2019-02-20 07:15;125,1
2019-02-20 07:30;173,75
2019-02-20 07:45;147,15
2019-02-20 08:00;150,8
2019-02-20 08:15;159,35
2019-02-20 08:30;170,25
2019-02-20 08:45;182,55
2019-02-20 09:00;196,15
2019-02-20 09:15;210,15
2019-02-20 09:30;236,35
2019-02-20 09:45;230
2019-02-20 10:00;236,25
2019-02-20 10:15;246,15
2019-02-20 10:30;250,4
2019-02-20 10:45;249,9
2019-02-20 11:00;261,3
2019-02-20 11:15;259,45
2019-02-20 11:30;260,25
2019-02-20 11:45;255,05
2019-02-20 12:00;256,85
2019-02-20 12:15;252,45
2019-02-20 12:30;250,35
2019-02-20 12:45;249,95
2019-02-20 13:00;247
2019-02-20 13:15;239,75
2019-02-20 13:30;241
2019-02-20 13:45;251,2
2019-02-20 14:00;250,8
2019-02-20 14:15;240,7
2019-02-20 14:30;236,4
2019-02-20 14:45;230,05
2019-02-20 15:00;213,85
2019-02-20 15:15;213,6
2019-02-20 15:30;210,65
2019-02-20 15:45;193,15
2019-02-20 16:00;204
2019-02-20 16:15;190,7
2019-02-20 16:30;186
2019-02-20 16:45;184,2
2019-02-20 17:00;179,35
2019-02-20 17:15;169,35
2019-02-20 17:30;181,85
2019-02-20 17:45;175,05
2019-02-20 18:00;182,4
2019-02-20 18:15;172,75
2019-02-20 18:30;175,1
2019-02-20 18:45;163,85
2019-02-20 19:00;163,2
2019-02-20 19:15;168,85
2019-02-20 19:30;158,05
2019-02-20 19:45;157,35
2019-02-20 20:00;160,25
2019-02-20 20:15;155,95
2019-02-20 20:30;155,4
2019-02-20 20:45;158,2
2019-02-20 21:00;151,35
2019-02-20 21:15;146,85
2019-02-20 21:30;138,85
2019-02-20 21:45;132,8
2019-02-20 22:00;129,5
2019-02-20 22:15;127
2019-02-20 22:30;126,3
2019-02-20 22:45;122,85
2019-02-20 23:00;127,25
2019-02-20 23:15;125,4
2019-02-20 23:30;126,85
2019-02-20 23:45;126,7
2019-02-21 00:00;114,9
2019-02-21 00:15;116,25
2019-02-21 00:30;117,6
2019-02-21 00:45;113,25
2019-02-21 01:00;109,75
2019-02-21 01:15;105
2019-02-21 01:30;113,3
2019-02-21 01:45;118
2019-02-21 02:00;114,65
2019-02-21 02:15;115,05
2019-02-21 02:30;116,3
2019-02-21 02:45;115,3
2019-02-21 03:00;114,45
2019-02-21 03:15;114,6
2019-02-21 03:30;113,65
2019-02-21 03:45;107,8
2019-02-21 04:00;111,2
2019-02-21 04:15;111,3
2019-02-21 04:30;108,55
2019-02-21 04:45;110,85
2019-02-21 05:00;115
2019-02-21 05:15;115,4
2019-02-21 05:30;110,35
2019-02-21 05:45;105,05
2019-02-21 06:00;109,75
2019-02-21 06:15;105,15
2019-02-21 06:30;106,95
2019-02-21 06:45;105,95
2019-02-21 07:00;110,1
2019-02-21 07:15;115,7
2019-02-21 07:30;170,4
2019-02-21 07:45;128,9
2019-02-21 08:00;146,8
2019-02-21 08:15;146,7
2019-02-21 08:30;162,1
2019-02-21 08:45;185,6
2019-02-21 09:00;189,85
2019-02-21 09:15;207,1
2019-02-21 09:30;211,4
2019-02-21 09:45;208,95
2019-02-21 10:00;219,65
2019-02-21 10:15;215,95
2019-02-21 10:30;217,8
2019-02-21 10:45;237,95
2019-02-21 11:00;226,35
2019-02-21 11:15;226,4
2019-02-21 11:30;228,65
2019-02-21 11:45;218,3
2019-02-21 12:00;226,45
2019-02-21 12:15;221,1
2019-02-21 12:30;221,4
2019-02-21 12:45;225,4
2019-02-21 13:00;218,6
2019-02-21 13:15;227
2019-02-21 13:30;232,7
2019-02-21 13:45;228,35
2019-02-21 14:00;240,65
2019-02-21 14:15;238,5
2019-02-21 14:30;220,7
2019-02-21 14:45;220,5
2019-02-21 15:00;207,95
2019-02-21 15:15;214,65
2019-02-21 15:30;194,8
2019-02-21 15:45;182,75
2019-02-21 16:00;189,75
2019-02-21 16:15;174,55
2019-02-21 16:30;176,8
2019-02-21 16:45;170,85
2019-02-21 17:00;176,4
2019-02-21 17:15;166,5
2019-02-21 17:30;172,05
2019-02-21 17:45;159,85
2019-02-21 18:00;164
2019-02-21 18:15;167,8
2019-02-21 18:30;160,85
2019-02-21 18:45;165,4
2019-02-21 19:00;153,45
2019-02-21 19:15;152,1
2019-02-21 19:30;147,6
2019-02-21 19:45;147,7
2019-02-21 20:00;146
2019-02-21 20:15;140,7
2019-02-21 20:30;141,05
2019-02-21 20:45;140,7
2019-02-21 21:00;135,65
2019-02-21 21:15;131,05
2019-02-21 21:30;129,35
2019-02-21 21:45;124,65
2019-02-21 22:00;118
2019-02-21 22:15;116,1
2019-02-21 22:30;114,55
2019-02-21 22:45;118,15
2019-02-21 23:00;120,65
2019-02-21 23:15;115,35
2019-02-21 23:30;117,9
2019-02-21 23:45;118,6
2019-02-22 00:00;110,05
2019-02-22 00:15;108,05
2019-02-22 00:30;108,85
2019-02-22 00:45;111,7
2019-02-22 01:00;110
2019-02-22 01:15;105,75
2019-02-22 01:30;105,45
2019-02-22 01:45;109,9
2019-02-22 02:00;113,35
2019-02-22 02:15;107,35
2019-02-22 02:30;108,8
2019-02-22 02:45;105,5
2019-02-22 03:00;108,3
2019-02-22 03:15;109,5
2019-02-22 03:30;110,9
2019-02-22 03:45;111
2019-02-22 04:00;109,05
2019-02-22 04:15;108,4
2019-02-22 04:30;109,75
2019-02-22 04:45;108,2
2019-02-22 05:00;112,5
2019-02-22 05:15;107,75
2019-02-22 05:30;105,7
2019-02-22 05:45;105,5
2019-02-22 06:00;108,75
2019-02-22 06:15;105,95
2019-02-22 06:30;107,25
2019-02-22 06:45;106,75
2019-02-22 07:00;105,55
2019-02-22 07:15;115
2019-02-22 07:30;176,2
2019-02-22 07:45;134,05
2019-02-22 08:00;140,65
2019-02-22 08:15;135,5
2019-02-22 08:30;153,3
2019-02-22 08:45;149,6
2019-02-22 09:00;171,7
2019-02-22 09:15;169,15
2019-02-22 09:30;185,55
2019-02-22 09:45;197,1
2019-02-22 10:00;193,8
2019-02-22 10:15;213,05
2019-02-22 10:30;208,2
2019-02-22 10:45;217,95
2019-02-22 11:00;230,5
2019-02-22 11:15;223,5
2019-02-22 11:30;231,7
2019-02-22 11:45;233,35
2019-02-22 12:00;230,1
2019-02-22 12:15;236,1
2019-02-22 12:30;234,15
2019-02-22 12:45;234,75
2019-02-22 13:00;236,45
2019-02-22 13:15;234,95
2019-02-22 13:30;222
2019-02-22 13:45;217,75
2019-02-22 14:00;207,05
2019-02-22 14:15;205,75
2019-02-22 14:30;207,9
2019-02-22 14:45;199,95
2019-02-22 15:00;201,05
2019-02-22 15:15;187,05
2019-02-22 15:30;178,1
2019-02-22 15:45;164,8
2019-02-22 16:00;161,5
2019-02-22 16:15;149,5
2019-02-22 16:30;149,1
2019-02-22 16:45;153,2
2019-02-22 17:00;150,55
2019-02-22 17:15;156,2
2019-02-22 17:30;146,2
2019-02-22 17:45;154,05
2019-02-22 18:00;153,1
2019-02-22 18:15;153,45
2019-02-22 18:30;143,3
2019-02-22 18:45;141,15
2019-02-22 19:00;137,75
2019-02-22 19:15;140,4
2019-02-22 19:30;142,45
2019-02-22 19:45;136,6
2019-02-22 20:00;130,6
2019-02-22 20:15;127,8
2019-02-22 20:30;127,25
2019-02-22 20:45;124,7
2019-02-22 21:00;116,55
2019-02-22 21:15;113,5
2019-02-22 21:30;113,55
2019-02-22 21:45;106,3
2019-02-22 22:00;100,3
2019-02-22 22:15;103,35
2019-02-22 22:30;100,8
2019-02-22 22:45;96,75
2019-02-22 23:00;101,55
2019-02-22 23:15;100,1
2019-02-22 23:30;103,9
2019-02-22 23:45;108,75
2019-02-23 00:00;100,1
2019-02-23 00:15;97,5
2019-02-23 00:30;97,8
2019-02-23 00:45;97,3
2019-02-23 01:00;97,15
2019-02-23 01:15;96,35
2019-02-23 01:30;95,5
2019-02-23 01:45;95,7
2019-02-23 02:00;97,05
2019-02-23 02:15;96,35
2019-02-23 02:30;94,1
2019-02-23 02:45;93,75
2019-02-23 03:00;96,05
2019-02-23 03:15;96
2019-02-23 03:30;93
2019-02-23 03:45;93,4
2019-02-23 04:00;93,65
2019-02-23 04:15;92,15
2019-02-23 04:30;92,7
2019-02-23 04:45;97,25
2019-02-23 05:00;92,65
2019-02-23 05:15;88
2019-02-23 05:30;89
2019-02-23 05:45;92,3
2019-02-23 06:00;92,1
2019-02-23 06:15;89,7
2019-02-23 06:30;88,75
2019-02-23 06:45;91,35
2019-02-23 07:00;90,1
2019-02-23 07:15;86,95
2019-02-23 07:30;82,95
2019-02-23 07:45;84
2019-02-23 08:00;92,9
2019-02-23 08:15;95,7
2019-02-23 08:30;90,95
2019-02-23 08:45;88,75
2019-02-23 09:00;86,95
2019-02-23 09:15;88,75
2019-02-23 09:30;89,5
2019-02-23 09:45;87,8
2019-02-23 10:00;81,4
2019-02-23 10:15;83,5
2019-02-23 10:30;83,1
2019-02-23 10:45;82,5
2019-02-23 11:00;85
2019-02-23 11:15;86,6
2019-02-23 11:30;90,6
2019-02-23 11:45;92,95
2019-02-23 12:00;87,1
2019-02-23 12:15;87,5
2019-02-23 12:30;88,05
2019-02-23 12:45;87,7
2019-02-23 13:00;96,85
2019-02-23 13:15;94,35
2019-02-23 13:30;97
2019-02-23 13:45;102,3
2019-02-23 14:00;103
2019-02-23 14:15;103,55
2019-02-23 14:30;103,15
2019-02-23 14:45;101,55
2019-02-23 15:00;94,1
2019-02-23 15:15;93,95
2019-02-23 15:30;98,45
2019-02-23 15:45;98
2019-02-23 16:00;94,55
2019-02-23 16:15;100,7
2019-02-23 16:30;105,55
2019-02-23 16:45;101,4
2019-02-23 17:00;107,15
2019-02-23 17:15;108,2
2019-02-23 17:30;106,4
2019-02-23 17:45;106,75
2019-02-23 18:00;105,45
2019-02-23 18:15;105,5
2019-02-23 18:30;111,85
2019-02-23 18:45;117,6
2019-02-23 19:00;112,25
2019-02-23 19:15;109,8
2019-02-23 19:30;108,65
2019-02-23 19:45;108,5
2019-02-23 20:00;110,8
2019-02-23 20:15;108,4
2019-02-23 20:30;109,65
2019-02-23 20:45;112,8
2019-02-23 21:00;113,6
2019-02-23 21:15;114,7
2019-02-23 21:30;111,95
2019-02-23 21:45;109,35
2019-02-23 22:00;105,25
2019-02-23 22:15;105,8
2019-02-23 22:30;101,2
2019-02-23 22:45;96,95
2019-02-23 23:00;105
2019-02-23 23:15;99
2019-02-23 23:30;103,2
2019-02-23 23:45;105,55
2019-02-24 00:00;97,6
2019-02-24 00:15;93,25
2019-02-24 00:30;91,3
2019-02-24 00:45;91,85
2019-02-24 01:00;91,05
2019-02-24 01:15;90,35
2019-02-24 01:30;92,2
2019-02-24 01:45;93,9
2019-02-24 02:00;87,4
2019-02-24 02:15;85,75
2019-02-24 02:30;87,6
2019-02-24 02:45;85,45
2019-02-24 03:00;88,35
2019-02-24 03:15;88,95
2019-02-24 03:30;87,55
2019-02-24 03:45;85,6
2019-02-24 04:00;86,1
2019-02-24 04:15;82,45
2019-02-24 04:30;85,8
2019-02-24 04:45;85,4
2019-02-24 05:00;84,95
2019-02-24 05:15;84,2
2019-02-24 05:30;83,3
2019-02-24 05:45;83,2
2019-02-24 06:00;85,8
2019-02-24 06:15;84,9
2019-02-24 06:30;83,7
2019-02-24 06:45;82,25
2019-02-24 07:00;82,35
2019-02-24 07:15;80,3
2019-02-24 07:30;77,4
2019-02-24 07:45;77,05
2019-02-24 08:00;77,75
2019-02-24 08:15;81,1
2019-02-24 08:30;81,65
2019-02-24 08:45;82,05
2019-02-24 09:00;83,05
2019-02-24 09:15;81,6
2019-02-24 09:30;82,35
2019-02-24 09:45;80,55
2019-02-24 10:00;81,55
2019-02-24 10:15;85,8
2019-02-24 10:30;84,15
2019-02-24 10:45;86,45
2019-02-24 11:00;86,6
2019-02-24 11:15;87,65
2019-02-24 11:30;89,2
2019-02-24 11:45;92,1
2019-02-24 12:00;100,75
2019-02-24 12:15;104,8
2019-02-24 12:30;105,8
2019-02-24 12:45;102,7
2019-02-24 13:00;102,65
2019-02-24 13:15;100,1
2019-02-24 13:30;104,35
2019-02-24 13:45;102,4
2019-02-24 14:00;103,15
2019-02-24 14:15;106,45
2019-02-24 14:30;110,1
2019-02-24 14:45;111,3
2019-02-24 15:00;111,15
2019-02-24 15:15;104,25
2019-02-24 15:30;104
2019-02-24 15:45;106,5
2019-02-24 16:00;109,2
2019-02-24 16:15;110,55
2019-02-24 16:30;114,15
2019-02-24 16:45;114,9
2019-02-24 17:00;117,3
2019-02-24 17:15;112,85
2019-02-24 17:30;111,55
2019-02-24 17:45;116,9
2019-02-24 18:00;120,4
2019-02-24 18:15;122,55
2019-02-24 18:30;119,35
2019-02-24 18:45;118,05
2019-02-24 19:00;118,85
2019-02-24 19:15;120,25
2019-02-24 19:30;122,5
2019-02-24 19:45;124,2
2019-02-24 20:00;125,15
2019-02-24 20:15;124,6
2019-02-24 20:30;123,9
2019-02-24 20:45;121
2019-02-24 21:00;120,75
2019-02-24 21:15;123
2019-02-24 21:30;127,25
2019-02-24 21:45;117,9
2019-02-24 22:00;114
2019-02-24 22:15;112
2019-02-24 22:30;111,7
2019-02-24 22:45;112
2019-02-24 23:00;120
2019-02-24 23:15;117,6
2019-02-24 23:30;118,15
2019-02-24 23:45;120,85

